{"data":{"norad_id":28369,"intl_designator":"2004-025D","name":"SAUDICOMSAT 1","alt_names":[],"object_type":"PAYLOAD","status":"ACTIVE","operator":null,"country":"SAUD","launch_date":"2004-06-29","launch_site_code":"TYMSC","launch_vehicle":null,"mission":null,"orbit_class":"UNKNOWN","rcs_meters":0.0485,"size_class":null,"mass_kg":null,"dimensions":null,"purposes":[],"wikipedia_slug":null,"has_3d_model":false,"image_url":null,"decayed_at":null,"tle_current":{"epoch":"2026-05-24T23:39:59.205024Z","epoch_age_seconds":86618,"freshness":"FRESH","line1":"1 28369U 04025D   26144.98610191  .00000304  00000+0  80724-4 0  9992","line2":"2 28369  98.5775 154.4918 0033432  94.5172 265.9844 14.55451521160756","mean_motion":14.55451521,"eccentricity":0.0033432,"inclination_deg":98.5775,"raan_deg":154.4918,"arg_perigee_deg":94.5172,"mean_anomaly_deg":265.9844,"bstar":8.0724e-5,"rev_number":16075,"period_min":98.938369243011,"perigee_km":684.20881371056,"apogee_km":731.58888380971,"semimajor_km":7086.0358487601,"source":"CELESTRAK","updated_at":"2026-05-25T13:37:55.058953Z"}}}